This demonstration page uses our WeatherBlox Daily Observations layout. Learn more.

Hourly Observations for January 31, 2019

Temp ( °F °C ) Dew Point ( °F °C ) Humidity (%) Winds ( mph kmh ) Pressure ( in mb ) Visibility ( mi km ) Precip ( " mm )
12:15 am 00:15 Clear 13 -10.5 7 -13.8 77 77 SSE 13 20 30.2 1023 10 16.0934 0 0
12:35 am 00:35 Clear 13 -10.5 8 -13.6 78 78 SSE 10 17 30.2 1023 10 16.0934 0 0
12:55 am 00:55 Partly Cloudy 13 -10.5 8 -13.4 79 79 SSE 9 15 30.19 1022 10 16.0934 0 0
1:15 am 01:15 Mostly Cloudy 14 -10.1 8 -13.1 79 79 SSE 14 22 30.18 1022 10 16.0934 0 0
1:35 am 01:35 Cloudy 14 -10 9 -13 79 79 SSE 12 19 30.18 1022 10 16.0934 0 0
1:55 am 01:55 Cloudy 14 -9.8 9 -12.9 78 78 SSE 10 17 30.17 1022 10 16.0934 0 0
2:15 am 02:15 Mostly Cloudy 14 -9.8 9 -12.8 79 79 S 14 22 30.16 1021 10 16.0934 0 0
2:35 am 02:35 Mostly Cloudy 14 -9.9 9 -12.8 80 80 SSE 10 17 30.16 1021 10 16.0934 0 0
2:55 am 02:55 Cloudy 14 -10.1 9 -13 80 80 S 13 20 30.17 1022 10 16.0934 0 0
3:15 am 03:15 Cloudy 14 -10.1 9 -12.8 81 81 S 13 20 30.15 1021 10 16.0934 0 0
3:35 am 03:35 Mostly Cloudy 13 -10.5 9 -13 82 82 S 14 22 30.15 1021 10 16.0934 0 0
3:55 am 03:55 Mostly Cloudy 13 -10.5 9 -13 82 82 S 14 22 30.13 1020 10 16.0934 0 0
4:15 am 04:15 Mostly Cloudy 13 -10.5 9 -12.8 83 83 S 14 22 30.13 1020 10 16.0934 0 0
4:35 am 04:35 Cloudy 13 -10.3 9 -12.7 83 83 S 14 22 30.12 1020 10 16.0934 0 0
4:55 am 04:55 Mostly Cloudy 13 -10.3 9 -12.6 83 83 S 13 20 30.12 1020 10 16.0934 0 0
5:15 am 05:15 Partly Cloudy 13 -10.5 9 -12.6 85 85 S 12 19 30.12 1020 10 16.0934 0 0
5:35 am 05:35 Partly Cloudy 13 -10.6 9 -12.6 85 85 S 10 17 30.13 1020 10 16.0934 0 0
5:55 am 05:55 Mostly Cloudy 13 -10.6 10 -12.5 86 86 S 12 19 30.13 1020 10 16.0934 0 0
6:15 am 06:15 Cloudy 13 -10.5 10 -12.5 85 85 S 13 20 30.13 1020 10 16.0934 0 0
6:35 am 06:35 Cloudy 13 -10.5 10 -12.5 85 85 S 12 19 30.13 1020 10 16.0934 0 0
6:55 am 06:55 Mostly Cloudy 12 -10.9 9 -12.7 87 87 S 12 19 30.13 1020 10 16.0934 0 0
7:15 am 07:15 Clear 12 -11.3 9 -13 87 87 S 9 15 30.14 1021 10 16.0934 0 0
7:35 am 07:35 Clear 11 -11.8 8 -13.3 89 89 SSE 6 9 30.17 1022 10 16.0934 0 0
7:55 am 07:55 Sunny 10 -12.2 8 -13.5 90 90 SSE 7 11 30.18 1022 10 16.0934 0 0
8:15 am 08:15 Sunny 11 -11.9 8 -13.3 89 89 S 8 13 30.17 1022 10 16.0934 0 0
8:35 am 08:35 Sunny 11 -11.5 8 -13.1 88 88 S 12 19 30.15 1021 10 16.0934 0 0
8:55 am 08:55 Sunny 12 -11 9 -12.9 86 86 S 15 24 30.14 1021 10 16.0934 0 0
9:15 am 09:15 Sunny 14 -10.1 10 -12.2 85 85 S 16 26 30.12 1020 10 16.0934 0 0
9:35 am 09:35 Sunny 16 -8.9 11 -11.5 82 82 SSW 15 24 30.11 1020 10 16.0934 0 0
9:55 am 09:55 Sunny 18 -7.7 13 -10.8 79 79 SSW 14 22 30.11 1020 10 16.0934 0 0
10:15 am 10:15 Sunny 20 -6.5 14 -10.1 76 76 SSW 17 28 30.09 1019 10 16.0934 0 0
10:35 am 10:35 Sunny 22 -5.6 15 -9.7 73 73 SSW 13 20 30.1 1019 10 16.0934 0 0
10:55 am 10:55 Sunny 24 -4.5 16 -9 71 71 SW 12 19 30.09 1019 10 16.0934 0 0
11:15 am 11:15 Sunny 24 -4.2 16 -8.7 71 71 SW 10 17 30.09 1019 10 16.0934 0 0
11:35 am 11:35 Sunny 26 -3.2 18 -8 70 70 SW 10 17 30.08 1018 10 16.0934 0 0
11:55 am 11:55 Sunny 28 -2.3 18 -7.6 67 67 SW 10 17 30.06 1018 10 16.0934 0 0
12:15 pm 12:15 Sunny 30 -1.2 19 -7 65 65 WSW 8 13 30.05 1017 10 16.0934 0 0
12:35 pm 12:35 Sunny 31 -0.5 20 -6.8 63 63 SW 9 15 30.03 1017 10 16.0934 0 0
12:55 pm 12:55 Sunny 33 0.5 20 -6.4 60 60 SW 7 11 30.01 1016 10 16.0934 0 0
1:15 pm 13:15 Sunny 34 0.9 20 -6.4 59 59 WSW 6 9 30.02 1016 10 16.0934 0 0
1:35 pm 13:35 Sunny 36 2 21 -6 56 56 WSW 6 9 30.01 1016 10 16.0934 0 0
1:55 pm 13:55 Sunny 37 2.9 22 -5.7 54 54 WSW 7 11 29.98 1015 10 16.0934 0 0
2:15 pm 14:15 Sunny 39 3.9 22 -5.5 51 51 WSW 7 11 29.97 1015 10 16.0934 0 0
2:35 pm 14:35 Sunny 40 4.5 22 -5.5 49 49 WSW 7 11 29.96 1015 10 16.0934 0 0
2:55 pm 14:55 Sunny 42 5.3 22 -5.3 47 47 WSW 7 11 29.96 1014 10 16.0934 0 0
3:15 pm 15:15 Sunny 42 5.8 23 -5.1 46 46 W 6 9 29.95 1014 10 16.0934 0 0
3:35 pm 15:35 Sunny 43 6.1 23 -5 45 45 W 6 9 29.96 1014 10 16.0934 0 0
3:55 pm 15:55 Sunny 43 6.1 24 -4.7 46 46 WNW 3 6 29.96 1014 10 16.0934 0 0
4:15 pm 16:15 Sunny 44 6.5 24 -4.7 45 45 Calm 29.95 1014 10 16.0934 0 0
4:35 pm 16:35 Sunny 45 7.1 23 -4.9 43 43 NW 3 6 29.95 1014 10 16.0934 0 0
4:55 pm 16:55 Sunny 44 6.7 24 -4.7 44 44 SW 3 6 29.95 1014 10 16.0934 0 0
5:15 pm 17:15 Sunny 43 6.3 24 -4.5 46 46 SSW 3 6 29.97 1015 10 16.0934 0 0
5:35 pm 17:35 Sunny 40 4.6 24 -4.6 52 52 S 3 6 29.98 1015 10 16.0934 0 0
5:55 pm 17:55 Clear 38 3.2 23 -4.8 56 56 S 5 7 29.99 1016 10 16.0934 0 0
6:15 pm 18:15 Clear 37 2.7 23 -4.8 58 58 S 6 9 30.01 1016 10 16.0934 0 0
6:35 pm 18:35 Clear 36 2.3 23 -5 59 59 S 5 7 30.01 1016 10 16.0934 0 0
6:55 pm 18:55 Clear 34 1.2 23 -5.1 63 63 S 6 9 30.03 1017 10 16.0934 0 0
7:15 pm 19:15 Clear 32 0.2 22 -5.3 67 67 SSW 6 9 30.05 1018 10 16.0934 0 0
7:35 pm 19:35 Clear 32 0 23 -5.2 68 68 SSW 6 9 30.06 1018 10 16.0934 0 0
7:55 pm 19:55 Clear 31 -0.6 22 -5.5 70 70 Calm 30.07 1018 10 16.0934 0 0
8:15 pm 20:15 Clear 29 -1.5 22 -5.7 73 73 S 5 7 30.09 1019 10 16.0934 0 0
8:35 pm 20:35 Clear 30 -1 22 -5.4 72 72 S 7 11 30.07 1018 10 16.0934 0 0
8:55 pm 20:55 Clear 27 -2.6 21 -6 78 78 SSE 7 11 30.09 1019 10 16.0934 0 0
9:15 pm 21:15 Clear 27 -2.6 21 -6 78 78 S 8 13 30.1 1019 10 16.0934 0 0
9:35 pm 21:35 Clear 28 -2 22 -5.7 76 76 S 5 7 30.09 1019 10 16.0934 0 0
9:55 pm 21:55 Clear 29 -1.8 22 -5.6 76 76 SSW 7 11 30.08 1019 10 16.0934 0 0
10:15 pm 22:15 Clear 28 -2.4 22 -5.8 78 78 S 6 9 30.1 1019 10 16.0934 0 0
10:35 pm 22:35 Clear 29 -1.7 22 -5.6 75 75 SSW 9 15 30.09 1019 10 16.0934 0 0
10:55 pm 22:55 Clear 30 -1.3 22 -5.5 73 73 SSW 10 17 30.09 1019 10 16.0934 0 0
11:15 pm 23:15 Clear 30 -1.2 22 -5.6 72 72 SSW 12 19 30.09 1019 10 16.0934 0 0
11:35 pm 23:35 Clear 30 -1.3 22 -5.5 73 73 SSW 10 17 30.09 1019 10 16.0934 0 0
11:55 pm 23:55 Clear 29 -1.5 22 -5.6 74 74 SSW 7 11 30.1 1019 10 16.0934 0 0

Powered by AerisWeather